Left ArrowRight Arrow

Hourly Observations for March 13, 2023

Temp ( °F °C ) Dew Point ( °F °C ) Humidity (%) Winds ( mph kmh ) Pressure ( in mb ) Visibility ( mi km ) Precip ( " mm )
12:53 am 00:53 Cloudy with Light Rain 38 3.3 37 2.8 97 97 WNW 6 9 29.96 1014 10 16 0.01 0.25
1:32 am 01:32 Cloudy 38 3.3 36 2.2 92 92 WNW 5 7 29.99 1016 10 16 0.01 0.13
1:53 am 01:53 Cloudy 38 3.3 37 2.8 97 97 WNW 6 9 29.96 1015 10 16 0.01 0.13
2:04 am 02:04 Cloudy 38 3.3 36 2.2 92 92 WNW 7 11 29.99 1016 10 16 0.00 0.00
2:42 am 02:42 Cloudy 38 3.3 36 2.2 92 92 NW 6 9 29.99 1016 10 16 0.01 0.13
2:53 am 02:53 Cloudy 38 3.3 36 2.2 92 92 NW 5 7 29.96 1015 10 16 0.01 0.13
3:44 am 03:44 Cloudy 38 3.3 36 2.2 92 92 VRB 3 6 29.99 1016 10 16 0.00 0.00
3:53 am 03:53 Cloudy 38 3.3 36 2.2 92 92 NW 3 6 29.96 1015 10 16 0.00 0.00
4:32 am 04:32 Cloudy 38 3.3 36 2.2 92 92 NW 6 9 29.98 1015 10 16 0.00 0.00
4:53 am 04:53 Cloudy 38 3.3 36 2.2 92 92 NW 3 6 29.95 1014 10 16 0.00 0.00
5:41 am 05:41 Cloudy 38 3.3 36 2.2 92 92 W 5 7 29.99 1016 10 16 0.00 0.00
5:53 am 05:53 Cloudy 38 3.3 36 2.2 92 92 W 5 7 29.96 1015 10 16 0.00 0.00
6:10 am 06:10 Cloudy 37 2.8 36 2.2 96 96 W 5 7 30.00 1016 10 16 0.00 0.00
6:26 am 06:26 Cloudy 37 2.8 36 2.2 96 96 WNW 6 9 30.00 1016 10 16 0.00 0.00
6:53 am 06:53 Cloudy 37 2.8 36 2.2 96 96 W 5 7 29.98 1015 10 16 0.00 0.00
7:05 am 07:05 Cloudy 37 2.8 36 2.2 96 96 W 7 11 30.02 1016 10 16 0.00 0.00
7:18 am 07:18 Cloudy 37 2.8 36 2.2 96 96 W 7 11 30.02 1016 10 16 0.00 0.00
7:39 am 07:39 Cloudy 37 2.8 36 2.2 96 96 WNW 5 7 30.02 1016 10 16 0.00 0.00
7:53 am 07:53 Cloudy 37 2.8 36 2.2 96 96 W 3 6 29.98 1015 10 16 0.00 0.00
8:43 am 08:43 Cloudy 37 2.8 36 2.2 96 96 W 6 9 30.02 1017 10 16 0.00 0.00
8:53 am 08:53 Cloudy 38 3.3 36 2.2 92 92 W 7 11 30.00 1016 10 16 0.00 0.00
9:32 am 09:32 Cloudy 39 3.9 36 2.2 89 89 W 9 15 30.03 1017 10 16 0.00 0.00
9:53 am 09:53 Cloudy 39 3.9 36 2.2 89 89 W 7 11 30.00 1016 10 16 0.00 0.00
10:16 am 10:16 Cloudy 39 3.9 36 2.2 89 89 W 8 13 30.03 1017 10 16 0.00 0.00
10:37 am 10:37 Cloudy 39 3.9 35 1.7 86 86 WNW 8 13 30.03 1017 10 16 0.00 0.00
10:53 am 10:53 Cloudy 39 3.9 33 0.6 79 79 WNW 8 13 30.01 1016 10 16 0.00 0.00
11:22 am 11:22 Cloudy 41 5 34 1.1 76 76 NW 9 15 30.04 1017 10 16 0.00 0.00
11:53 am 11:53 Cloudy with Light Rain 38 3.3 33 0.6 82 82 NW 14 22 30.01 1016 9 14 0.01 0.13
12:01 pm 12:01 Cloudy with Light Snow 35 1.7 32 0 88 88 NNW 14 22 30.06 1018 6 10 0.01 0.13
12:10 pm 12:10 Cloudy 36 2.2 33 0.6 89 89 NNW 12 19 30.06 1018 9 14 0.01 0.13
12:17 pm 12:17 Cloudy 36 2.2 33 0.6 89 89 NNW 8 13 30.06 1018 10 16 0.01 0.13
12:45 pm 12:45 Cloudy 36 2.2 32 0 85 85 NW 9 15 30.07 1018 10 16 0.01 0.13
12:53 pm 12:53 Cloudy 37 2.8 32 0 82 82 WNW 12 19 30.04 1017 10 16 0.01 0.13
1:11 pm 13:11 Cloudy 38 3.3 31 -0.6 76 76 WNW 14 22 30.06 1018 10 16 0.00 0.00
1:53 pm 13:53 Mostly Cloudy 40 4.4 32 0 73 73 WNW 14 22 30.04 1017 10 16 0.00 0.00
2:53 pm 14:53 Cloudy 37 2.8 28 -2.2 70 70 WNW 14 22 30.05 1018 10 16 0.00 0.00
3:32 pm 15:32 Cloudy 36 2.2 27 -2.8 69 69 NW 16 26 30.08 1019 10 16 0.00 0.00
3:40 pm 15:40 Cloudy 36 2.2 27 -2.8 69 69 WNW 15 24 30.09 1019 10 16 0.00 0.00
3:53 pm 15:53 Cloudy 36 2.2 27 -2.8 69 69 NW 12 19 30.06 1018 10 16 0.00 0.00
4:53 pm 16:53 Cloudy 34 1.1 24 -4.4 67 67 NW 14 22 30.09 1019 10 16 0.00 0.00
5:01 pm 17:01 Cloudy 34 1.1 23 -5 64 64 NW 13 20 30.12 1020 10 16 0.00 0.00
5:53 pm 17:53 Cloudy 33 0.6 22 -5.6 63 63 NW 12 19 30.10 1019 10 16 0.00 0.00
6:32 pm 18:32 Cloudy 32 0 22 -5.6 66 66 NNW 13 20 30.16 1021 10 16 0.00 0.00
6:45 pm 18:45 Cloudy 32 0 21 -6.1 63 63 NW 9 15 30.16 1021 10 16 0.00 0.00
6:53 pm 18:53 Cloudy 32 0 21 -6.1 63 63 NW 8 13 30.13 1020 10 16 0.00 0.00
7:53 pm 19:53 Cloudy 32 0 22 -5.6 66 66 WNW 6 9 30.14 1021 10 16 0.00 0.00
8:53 pm 20:53 Cloudy 32 0 22 -5.6 66 66 W 6 9 30.15 1021 10 16 0.00 0.00
9:53 pm 21:53 Cloudy 32 0 21 -6.1 63 63 W 9 15 30.16 1022 10 16 0.00 0.00
10:53 pm 22:53 Cloudy 32 0 21 -6.1 63 63 WNW 6 9 30.17 1022 10 16 0.00 0.00
11:53 pm 23:53 Cloudy 32 0 21 -6.1 63 63 WNW 9 15 30.19 1022 10 16 0.00 0.00

Powered by Vaisala Xweather